Weather in Zalesnaya

Russia / Perm Krai     58°11′29″N   56°23′57″E
temp.,
°C
wind,
m/s
gust,
m/s
humid.,
%
clouds,
%
prec.,
mm/h
press.,
hPa
HPBL,
m
2 march, tue
tue223:00−17ssw379860 0.0 1014150
02:00−17ssw4129677 0.0 1011338
05:00−15ssw5129189 0.0 1008475
08:00−13ssw51394100 0.4 1004578
11:00−13ssw61293100 1.6 1002599
14:00−12ssw51193100 1.2 999616
17:00−11s51091100 1.9 998619
20:00−10s41094100 0.6 996526
3 march, wed
wed323:00−9s3895100 1.3 996417
02:00−9sse2696100 0.7 994248
05:00−9s1297100 0.9 99421
08:00−10wsw119797 0.1 99421
11:00−6wsw249598 0.1 995231
14:00−3wsw359299 0.1 995485
17:00−2wsw3592100 0.3 995498
20:00−5wsw1298100 0.3 99622
4 march, thu
thu423:00−6nnw2696100 1.3 997251
02:00−8nw3895100 0.5 997363
05:00−13w239696 0.5 99838
08:00−14wsw269733 0.0 998151
11:00−10sw369462 0.1 999321
14:00−7sw4791100 0.1 999562
17:00−6sw4889100 0.3 998768
20:00−8s31094100 0.1 997460
5 march, fri
fri523:00−8s41194100 0.4 995625
02:00−6s51294100 1.1 990848
05:00−4s51395100 3.6 986882
08:00−2wsw71396100 2.2 9851164
11:00−5wsw7138391 2.6 9881178
14:00−7wsw71285100 0.3 9921071
17:00−7w61187100 0.4 998941
20:00−10w4993100 0.1 1001551
6 march, sat
sat623:00−12w3895100 0.3 1005318
02:00−17w239789 0.0 100779
05:00−19wsw129973 0.1 100920
08:00−21sw1110072 0.0 101020
11:00−15ssw129186 0.0 1010232
14:00−11ese1287100 0.0 1007382
17:00−10ene2389100 0.0 1004444
20:00−12nne2595100 0.0 1001181